Wind_Speed
40 39 37 36 36 36 36 36 36 36 35 35 34 33 32 32 31 31 30 30 30 29 29 28 29 29 29 29 29 30 30 31 31 32 32 32 32 33 34 34 34 35 35
41 40 40 39 38 37 38 38 38 37 37 36 35 34 33 33 32 32 32 31 30 30 29 29 30 30 30 31 31 31 32 32 33 33 32 32 33 34 35 35 36 36 36
42 42 42 41 40 39 39 39 39 38 37 36 36 35 33 33 32 31 32 31 31 30 30 31 30 31 31 32 32 32 33 34 34 34 34 34 35 36 36 36 37 37 37
42 43 43 42 41 40 40 39 39 38 36 35 35 34 33 32 32 31 32 31 31 31 31 31 32 32 32 33 33 34 35 35 35 35 36 36 37 37 37 37 38 38 38
43 43 43 42 42 41 40 39 38 38 37 35 35 34 34 33 33 32 32 32 33 32 31 31 32 32 33 34 34 35 35 36 36 37 37 38 38 38 38 38 38 38 39
44 43 43 43 43 42 40 39 38 38 37 36 35 35 34 34 33 33 32 33 33 32 32 32 32 33 34 35 35 35 36 37 37 38 38 39 38 38 39 39 39 40 40
44 43 44 44 43 41 41 39 37 38 38 37 35 36 36 35 34 34 33 33 33 33 33 33 33 34 35 35 36 36 37 38 38 38 39 39 39 39 40 40 41 41 42
45 44 44 45 43 42 42 40 39 38 37 37 37 37 36 37 36 35 35 35 34 34 34 34 34 35 35 36 36 37 38 39 39 39 40 40 40 40 41 42 42 43 43
45 44 44 44 43 42 41 41 40 38 37 38 38 38 38 38 38 37 36 36 35 35 35 35 35 36 36 37 37 38 39 40 39 39 40 41 41 41 42 43 43 43 43
45 44 44 44 43 43 42 42 41 40 39 39 39 39 39 39 39 38 37 37 37 36 35 35 36 36 37 38 38 39 40 40 39 40 40 40 41 42 42 42 42 42 43
46 46 45 44 44 44 43 43 42 42 41 40 39 40 40 40 39 38 37 37 37 37 36 36 36 36 38 38 38 39 39 39 40 39 40 41 41 42 42 42 42 42 42
47 47 47 46 46 45 44 44 44 43 41 40 40 40 40 40 39 38 37 37 36 37 36 36 36 37 38 39 39 39 39 39 39 39 40 41 41 41 41 41 41 41 42
46 46 45 46 46 46 45 45 45 44 43 42 41 41 41 39 39 39 39 38 37 37 37 37 37 38 38 39 39 39 39 39 39 40 40 41 41 41 41 41 41 41 42
46 46 45 46 46 46 46 46 46 45 44 43 42 41 41 40 40 40 39 39 38 37 36 36 36 37 38 38 38 38 38 38 39 40 40 41 41 41 41 41 41 42 42
46 45 46 45 45 45 45 46 45 45 45 44 43 42 40 40 41 40 39 39 39 38 37 37 36 37 37 37 38 38 38 38 38 39 40 40 41 41 41 42 42 42 41
46 45 46 46 45 44 44 45 45 44 45 45 44 42 41 40 39 39 39 38 37 37 37 36 37 37 36 36 36 37 37 37 38 39 39 40 41 41 42 42 41 41 40
43 44 44 44 45 44 44 45 44 44 44 45 44 42 41 40 39 38 37 37 37 36 35 36 37 37 36 35 36 37 37 37 38 38 39 39 40 40 41 40 40 40 39
41 43 45 44 44 45 44 44 43 44 44 43 42 40 40 40 39 38 37 37 36 36 37 37 37 37 37 37 36 36 37 38 39 39 39 39 39 39 39 39 39 39 38
41 42 43 43 43 44 43 42 43 43 43 42 41 40 39 39 39 38 37 36 35 36 37 36 36 37 38 37 36 37 37 38 38 38 39 39 39 38 38 38 38 37 37
40 41 42 42 41 41 41 40 40 41 42 41 40 39 39 38 38 37 35 35 35 36 36 36 36 36 37 38 38 38 38 37 37 38 37 37 37 37 37 36 36 36 36
38 38 39 39 39 39 40 40 38 39 40 40 39 39 38 38 38 37 36 35 35 36 36 36 35 35 35 37 37 37 36 36 36 36 36 36 36 36 35 34 35 35 35
37 36 36 38 38 38 38 38 36 37 38 39 38 38 39 38 39 39 38 36 36 36 36 37 36 36 35 35 36 36 36 36 35 34 34 33 34 34 34 35 35 35 35
35 35 35 35 36 36 36 35 35 35 36 36 37 38 39 38 38 38 38 37 38 37 36 36 36 35 35 35 35 36 35 35 34 33 33 33 34 34 34 34 35 34 34
33 33 33 33 34 34 35 35 34 34 35 35 36 38 38 37 36 37 38 37 37 37 37 36 35 36 36 35 34 34 34 34 33 33 32 32 33 33 34 34 33 33 34
33 32 32 32 32 33 33 34 34 33 34 35 35 35 36 36 35 37 37 36 36 36 35 34 34 35 35 33 34 34 34 33 32 32 32 32 32 32 32 32 32 33 33
30 29 30 31 31 32 32 32 33 33 34 34 34 33 35 35 34 34 35 35 35 34 33 34 34 33 33 33 33 33 32 31 31 31 31 31 31 30 29 29 30 30 31
Wind_Direction
250 251 251 254 255 257 259 261 262 264 265 267 267 268 269 270 270 271 271 272 273 275 278 280 281 283 285 288 290 293 296 298 300 300 300 301 301 302 303 303 302 302 301
249 251 251 253 255 257 260 261 262 262 264 265 266 266 268 270 270 270 271 270 272 274 277 279 280 283 285 287 290 293 295 297 298 299 299 300 301 301 302 302 302 301 300
251 251 251 253 255 257 258 260 261 261 262 263 265 266 266 268 270 270 270 270 272 274 277 278 279 282 284 286 289 291 294 296 297 298 298 299 300 300 301 301 301 301 300
250 251 251 252 254 255 255 258 260 261 262 262 263 264 266 267 268 268 269 269 272 274 276 278 279 281 283 285 287 290 293 294 296 297 298 299 299 299 300 300 301 301 300
250 250 251 251 253 253 254 257 260 260 262 262 262 263 264 266 268 268 268 269 272 273 275 278 279 280 283 285 288 290 292 294 295 296 297 298 298 299 299 300 301 301 300
252 252 251 250 251 251 253 256 258 260 261 262 262 263 264 265 266 268 267 270 271 271 273 276 279 281 283 285 288 290 292 293 295 295 296 297 298 298 299 300 300 300 300
251 252 252 250 249 251 252 255 257 259 260 261 262 262 263 264 265 267 268 269 270 271 273 275 279 281 283 286 288 289 291 293 293 293 294 296 297 298 299 300 300 299 299
249 251 252 250 249 250 252 254 256 259 259 260 261 262 263 263 264 265 268 267 269 272 273 275 277 280 283 285 287 288 291 292 292 293 294 295 296 297 298 299 299 299 299
250 251 250 248 247 249 252 255 256 259 260 260 261 262 264 264 264 265 267 267 267 270 272 274 278 279 281 283 286 288 290 291 292 293 294 295 296 297 299 299 299 299 299
250 249 249 249 249 250 253 255 258 259 260 260 261 262 264 266 265 265 266 268 269 269 271 275 277 279 281 284 286 288 289 291 292 293 294 295 296 297 298 299 300 300 300
250 249 249 249 251 252 254 256 257 259 259 259 261 262 263 264 263 265 266 268 269 269 271 275 278 280 282 284 286 288 289 291 293 294 296 297 297 299 299 299 300 301 301
250 249 249 250 251 253 256 257 257 258 258 259 260 261 263 262 263 264 266 267 268 270 271 275 278 280 282 283 286 288 290 291 293 294 296 297 298 299 300 300 301 302 302
250 249 250 251 253 256 257 258 257 257 258 259 260 262 263 263 263 264 265 266 267 269 271 275 277 278 281 284 286 288 290 291 293 295 297 297 298 298 299 300 301 302 302
249 250 251 253 254 256 257 257 256 256 257 257 258 261 263 262 263 263 265 265 266 267 269 273 274 277 281 284 285 287 290 292 293 295 296 297 298 298 299 300 301 302 302
249 250 251 252 253 254 255 255 255 255 255 256 257 260 261 263 262 262 263 264 266 268 268 271 274 277 279 282 284 287 290 292 294 295 297 297 297 298 298 299 301 302 302
250 250 252 253 253 253 253 255 254 253 254 255 256 257 258 260 260 260 262 263 264 267 270 271 273 276 278 282 284 287 290 293 294 296 296 298 297 298 298 300 300 302 303
252 251 251 252 253 253 254 255 254 253 253 254 255 256 257 258 259 260 261 262 263 268 270 272 274 276 278 281 284 287 290 292 293 296 297 298 298 299 300 300 301 303 304
253 253 253 254 253 254 255 254 254 253 252 253 253 254 256 256 256 258 260 262 264 267 270 272 275 276 277 280 285 288 290 291 293 294 296 297 298 299 300 301 302 303 303
253 254 254 254 253 254 253 255 254 252 250 251 252 253 254 254 255 255 257 260 264 268 271 272 274 276 277 279 283 287 290 291 292 294 295 296 299 300 299 300 301 302 303
254 256 255 254 252 253 253 253 253 251 248 248 250 251 253 254 254 253 254 259 264 268 271 273 275 277 278 280 282 285 288 289 291 293 294 296 298 299 299 300 301 302 304
252 254 254 252 250 251 252 254 253 251 248 248 248 250 251 253 253 252 255 260 264 269 271 273 276 277 279 281 282 284 287 288 291 293 294 295 297 298 299 299 301 303 305
253 253 253 251 250 251 253 254 251 252 249 247 248 249 251 254 254 254 256 260 266 270 271 273 275 278 280 283 283 284 287 289 290 291 294 295 296 298 299 301 302 304 305
253 252 252 251 250 251 254 253 252 251 248 247 248 250 251 253 255 254 257 260 265 270 272 273 276 279 280 283 285 285 286 288 288 290 292 294 296 298 299 301 303 304 305
253 254 252 251 251 253 254 254 254 251 247 248 248 250 250 252 254 255 256 261 265 269 271 273 275 277 279 281 283 284 285 287 288 289 292 295 297 299 300 301 302 303 306
254 254 250 251 251 254 256 255 255 251 249 250 249 248 248 251 254 257 259 262 265 268 268 271 274 275 276 279 282 284 285 287 288 290 292 296 298 300 301 302 302 304 306
256 254 250 252 254 254 255 254 255 252 252 251 250 250 250 251 254 257 261 262 264 265 266 268 272 274 276 278 280 282 284 286 288 290 293 296 298 299 300 301 301 303 306
Height
5785 5788 5790 5793 5794 5796 5797 5798 5799 5800 5801 5801 5802 5803 5804 5804 5805 5806 5806 5807 5807 5808 5808 5808 5808 5807 5807 5806 5805 5803 5802 5800 5798 5795 5793 5791 5788 5786 5783 5780 5778 5775 5772
5775 5779 5781 5783 5785 5787 5788 5789 5790 5791 5792 5793 5793 5794 5795 5796 5797 5798 5798 5799 5800 5800 5801 5801 5801 5801 5800 5799 5798 5797 5795 5793 5791 5788 5786 5784 5781 5778 5776 5773 5770 5767 5764
5765 5768 5771 5773 5775 5777 5778 5779 5781 5781 5782 5784 5785 5786 5787 5788 5788 5789 5790 5792 5792 5793 5794 5794 5794 5793 5793 5792 5791 5790 5788 5786 5784 5781 5779 5776 5773 5771 5768 5765 5762 5759 5756
5754 5757 5760 5762 5764 5766 5768 5770 5771 5773 5774 5775 5776 5777 5778 5779 5780 5781 5782 5783 5784 5785 5786 5786 5786 5786 5786 5785 5783 5782 5780 5778 5776 5774 5771 5768 5765 5762 5759 5756 5753 5750 5747
5744 5747 5750 5752 5754 5756 5758 5760 5762 5764 5765 5766 5768 5769 5770 5771 5772 5773 5775 5776 5776 5777 5778 5779 5779 5778 5778 5777 5776 5774 5772 5770 5768 5766 5763 5760 5757 5754 5751 5748 5744 5741 5737
5733 5736 5739 5741 5744 5746 5749 5750 5752 5754 5756 5758 5759 5761 5762 5763 5765 5765 5767 5768 5768 5769 5770 5771 5771 5771 5770 5769 5768 5766 5764 5762 5760 5757 5754 5751 5748 5745 5742 5739 5735 5731 5728
5723 5726 5728 5731 5733 5736 5739 5741 5742 5744 5747 5749 5750 5752 5754 5755 5757 5758 5759 5760 5760 5761 5761 5762 5762 5762 5762 5761 5760 5758 5756 5753 5751 5748 5745 5742 5739 5736 5733 5729 5725 5722 5718
5712 5715 5717 5720 5723 5726 5729 5731 5733 5735 5737 5739 5742 5743 5745 5747 5748 5750 5751 5751 5752 5752 5753 5753 5753 5754 5753 5752 5751 5749 5747 5744 5741 5739 5736 5733 5730 5727 5723 5719 5715 5711 5708
5701 5704 5707 5710 5712 5715 5718 5721 5724 5726 5727 5730 5732 5734 5736 5738 5740 5742 5742 5743 5744 5744 5744 5744 5745 5745 5744 5743 5742 5740 5738 5735 5732 5729 5727 5724 5720 5717 5713 5709 5705 5701 5697
5690 5693 5696 5700 5703 5705 5709 5711 5713 5716 5718 5720 5722 5724 5727 5728 5730 5733 5734 5735 5735 5736 5736 5736 5736 5736 5735 5734 5733 5731 5729 5726 5723 5720 5717 5714 5710 5707 5703 5699 5694 5690 5687
5680 5683 5686 5689 5693 5696 5698 5700 5703 5706 5708 5710 5713 5715 5716 5718 5720 5722 5725 5727 5727 5727 5727 5727 5727 5727 5726 5724 5723 5721 5719 5716 5714 5711 5708 5704 5700 5697 5692 5689 5685 5681 5677
5670 5673 5676 5679 5682 5685 5687 5689 5692 5695 5698 5701 5703 5705 5707 5709 5711 5713 5715 5717 5718 5719 5719 5718 5718 5718 5717 5716 5714 5712 5710 5707 5704 5701 5698 5695 5691 5687 5683 5679 5675 5671 5667
5660 5662 5665 5669 5672 5674 5676 5678 5681 5684 5687 5690 5693 5695 5697 5699 5701 5703 5705 5707 5708 5709 5709 5709 5708 5708 5707 5706 5704 5702 5700 5698 5695 5692 5688 5685 5681 5677 5673 5669 5666 5662 5657
5649 5652 5655 5658 5661 5664 5666 5668 5670 5673 5677 5680 5683 5685 5687 5689 5691 5693 5695 5697 5698 5700 5700 5700 5699 5699 5698 5697 5695 5693 5691 5688 5685 5682 5679 5675 5672 5668 5664 5660 5656 5652 5648
5638 5641 5644 5647 5650 5653 5655 5657 5660 5663 5666 5669 5672 5675 5677 5679 5680 5682 5684 5686 5688 5690 5691 5691 5690 5689 5688 5687 5686 5684 5682 5679 5676 5673 5670 5666 5662 5659 5655 5651 5647 5643 5638
5628 5631 5634 5636 5639 5642 5644 5646 5649 5652 5655 5658 5661 5664 5666 5668 5670 5673 5675 5677 5678 5679 5681 5682 5681 5680 5679 5678 5676 5675 5673 5670 5667 5664 5660 5656 5652 5649 5645 5641 5637 5633 5629
5617 5620 5623 5626 5629 5631 5633 5635 5638 5641 5644 5647 5650 5653 5656 5658 5661 5663 5665 5667 5669 5670 5671 5672 5671 5670 5670 5669 5668 5666 5663 5661 5658 5654 5651 5647 5643 5640 5636 5632 5628 5624 5620
5607 5610 5613 5616 5618 5620 5623 5625 5628 5630 5633 5637 5640 5643 5645 5648 5651 5653 5655 5658 5659 5661 5661 5662 5662 5661 5660 5659 5658 5657 5654 5652 5649 5645 5642 5638 5634 5631 5627 5623 5619 5615 5611
5597 5600 5603 5606 5608 5610 5612 5615 5617 5620 5623 5626 5629 5632 5635 5638 5641 5644 5646 5648 5650 5651 5651 5652 5653 5652 5651 5650 5649 5647 5645 5642 5639 5636 5633 5629 5626 5622 5618 5615 5611 5607 5603
5587 5590 5592 5595 5597 5599 5602 5604 5607 5610 5613 5615 5619 5622 5626 5629 5632 5634 5636 5639 5640 5641 5642 5643 5643 5643 5642 5641 5639 5638 5636 5633 5630 5627 5624 5621 5617 5614 5610 5606 5603 5599 5595
5577 5579 5582 5584 5587 5589 5592 5594 5597 5600 5603 5606 5610 5613 5616 5620 5622 5625 5627 5629 5631 5632 5633 5633 5633 5633 5632 5631 5630 5628 5627 5625 5622 5619 5616 5612 5610 5606 5602 5599 5595 5591 5587
5567 5570 5572 5575 5578 5580 5583 5585 5587 5591 5593 5597 5601 5604 5607 5610 5613 5616 5618 5619 5621 5622 5623 5624 5624 5624 5623 5622 5621 5619 5618 5616 5614 5611 5608 5605 5602 5599 5595 5591 5588 5584 5580
5558 5561 5563 5566 5569 5571 5573 5575 5578 5581 5585 5588 5592 5595 5598 5600 5603 5606 5608 5610 5611 5612 5613 5614 5615 5614 5614 5614 5612 5611 5609 5607 5605 5603 5600 5598 5594 5591 5587 5583 5580 5576 5572
5550 5553 5555 5558 5560 5563 5565 5567 5570 5573 5576 5580 5583 5586 5589 5591 5594 5597 5599 5601 5602 5603 5604 5605 5606 5605 5605 5604 5603 5602 5601 5599 5597 5594 5592 5590 5587 5584 5580 5575 5572 5568 5564
5543 5545 5547 5550 5552 5555 5557 5560 5562 5565 5568 5571 5573 5577 5580 5582 5585 5588 5590 5592 5593 5594 5594 5595 5596 5596 5596 5595 5594 5593 5592 5591 5589 5587 5584 5582 5580 5577 5573 5569 5565 5561 5557
5534 5536 5539 5542 5544 5547 5549 5552 5554 5557 5560 5562 5565 5568 5571 5573 5576 5578 5580 5582 5584 5585 5586 5587 5587 5587 5586 5586 5585 5584 5584 5583 5581 5580 5577 5575 5572 5569 5567 5563 5558 5554 5551